Location: Atbuku
(36.4936°N, 30.4362°E)
Time: 18:16:05
(UTC+00:00)

SMAP - Pass Details

Date: 11 December 2025
Orbit: 681 x 683 km, 98.1° (Epoch: 15 January)

Event Time Altitude Azimuth Distance (km) Brightness Sun altitude
Rises 15:55:28 0° 183° (S) 3,029 6.7 -14.2°
Reaches altitude 10° 15:57:47 10° 190° (S) 2,118 6.0 -14.6°
Maximum altitude 16:02:11 43° 261° (W) 965 4.4 -15.5°
Drops below altitude 10° 16:06:37 10° 333° (NNW) 2,132 5.7 -16.3°
Sets 16:08:58 0° 340° (NNW) 3,052 6.5 -16.8°
